sat.trackr.live / text

‹ back to catalog

STARLINK-34714

NORAD 64939 · 2025-158H

PAYLOAD ACTIVE UNKNOWN

§ Identity

Operator
Country
US
Launch date
2025-07-27
Launch site
AFWTR
Launch vehicle
Mass (kg)
RCS (m²)

Purposes: comms

External: N2YO · Heavens-Above · Gunter

§ Orbital elements

Epoch: 2026-09-20T14:19:21.146592Z

Period
93.91 min
Inclination
97.2820°
Eccentricity
0.0002673
Mean motion
15.33458571 rev/d
Perigee alt
463.7 km
Apogee alt
467.3 km
Semi-major
6,843.6 km
B*
4.7432e-4
RAAN
121.9460°
Arg perigee
87.8074°
Mean anomaly
272.3475°
Rev number
6,456

§ Raw data

STARLINK-347141 64939U 25158H   26263.59677253  .00015277  00000+0  47432-3 0  99992 64939  97.2820 121.9460 0002673  87.8074 272.3475 15.33458571 64569

JSON: /api/v1/satellites/64939 · /tle

For live sub-satellite position, see the globe view (requires WebGL).

§ Visibility from observer

Set your observer location to see the next 7 days of passes ≥ 10°. The values pass through the URL so the page stays shareable.

No JS? Fill the form by hand. The geolocation button needs JavaScript.